TRANSIT 5B-2 DEB, 25156

Orbit data source: Space-Track

TRANSIT 5B-2 DEB, 25156 is space debris in LEO originally from a launch on Thu, 05 Dec 1963 UTC launched from the Air Force Western Test Range (AFWTR). Debris objects in space refer to the collection of defunct objects orbiting the Earth. Examples of debris include non-operational satellites, rocket bodies, and fragments generated from explosions, collisions, or faulty payload assembly.

Loading next visibility...
Identifier
25156, 1963-049N
Orbit
LEO
Country
Flag of USUS
Related business
Manufacturer
Unknown
Mission
Spacecraft
Bus & Motor
Unknown
Mass
Unknown
Launch date (UTC)
1963-12-05 (62 years ago)
Launch vehicle
Unknown
Launch site
Air Force Western Test Range (AFWTR)
Object type
Payload
Rocket body
Debris
Shape & HBR
Unknown
Radar Cross Section
Medium (>0.1 m² and <1 m²)

Expand to show TLE details & history
Last TLE update: 14 hours ago

TLE from 14 hours ago
0 TRANSIT 5B-2 DEB
1 25156U 63049N   25259.52089101  .00000571  00000-0  78620-3 0  9999
2 25156  89.9139  74.2191 0043898 104.8789 316.1958 13.56918188361916
Epoch: 2025-09-16T12:30Z
TLE epoch observation values (Epoch: 2025-09-16T12:30:04.983Z)
Latitude
60.81445°
Longitude
-108.85831°
Altitude
1,033.915 km
Speed
7.352 km/s
True Right ascension
04h 57m 29s
True Declination
60° 40' 24"
Sunlit
Object was in daylight at epoch
Visualization orbit readout
Latitude
Unknown
Longitude
Unknown
Altitude
Unknown
Speed
Unknown
Apparent Right ascension
Unknown
Apparent Declination
Unknown
Sunlit
N/A
Visualization observer readout
Local Sidereal Time
18:59:42
Azimuth
Unknown
Elevation
Unknown
Doppler factor
Unknown
Orbital elements
Apogee altitude
1,076.534 km
Perigee altitude
1,011.371 km
Semi-major axis
7,422.09 km
Eccentricity
0.00439
Inclination
89.9139°
RAAN
74.2191°
Arg. of periapsis
104.8789°
True anomaly
315.84622°
Mean anomaly
316.1958°
Eccentric anomaly
316.02115°
Mean motion
3.39433 °/min
Orbital period
106.06 mins
BSTAR
0.0007862
Loading maneuver chart data...
Computing Atmospheric mass density...
Loading historical data...
Loading historical data...
Loading historical data...
Loading historical data...
Loading historical data...
Loading historical data...
Loading historical data...

Documentation

Showing up to 5 results
|